FENGYUN 1C DEB, 31536

Orbit data source: Space-Track

FENGYUN 1C DEB, 31536 is space debris in SSO originally from a launch on Mon, 10 May 1999 UTC launched from the Taiyaun Space Center, China (TSC). Fengyun 1C debris stems from the Chinese weather satellite Fengyun-1C, which was intentionally destroyed by a Chinese anti-satellite missile in 2007. This event dramatically increased the amount of space debris, with thousands of trackable fragments posing hazards to satellites and human spaceflight. The Fengyun 1C debris cloud has become a focal point in discussions about space sustainability and the need for international regulations to prevent the creation of new debris.

Loading next visibility...
Identifier
31536, 1999-025BYB
Orbit
SSO
Country
Flag of CNCN / PRC
Related business
Manufacturer
Unknown
Mission
Spacecraft
Bus & Motor
Unknown
Mass
Unknown
Launch date (UTC)
1999-05-10 (27 years ago)
Launch vehicle
Unknown
Launch site
Taiyaun Space Center, China (TSC)
Object type
Payload
Rocket body
Debris
Shape & HBR
Unknown shape, 0.1 m
Radar Cross Section
Small (<0.1 m²)

Expand to show TLE details & history
Last TLE update: 1 week ago

TLE from 1 week ago
0 FENGYUN 1C DEB
1 31536U 99025BYB 26152.54442042  .00011015  00000-0  13933-2 0  9993
2 31536  98.2302  62.9543 0282166 335.6317  23.1752 14.57758579987435
Epoch: 2026-06-01T13:03Z
TLE epoch observation values (Epoch: 2026-06-01T13:03:57.924Z)
Latitude
0.00003°
Longitude
-23.06727°
Altitude
520.661 km
Speed
7.701 km/s
True Right ascension
04h 11m 49s
True Declination
0° 00' 00"
Sunlit
Object was in daylight at epoch
Visualization orbit readout
Latitude
Unknown
Longitude
Unknown
Altitude
Unknown
Speed
Unknown
Apparent Right ascension
Unknown
Apparent Declination
Unknown
Sunlit
N/A
Visualization observer readout
Local Sidereal Time
07:02:48
Azimuth
Unknown
Elevation
Unknown
Doppler factor
Unknown
Orbital elements
Apogee altitude
897.153 km
Perigee altitude
497.852 km
Semi-major axis
7,075.64 km
Eccentricity
0.02822
Inclination
98.2302°
RAAN
62.9543°
Arg. of periapsis
335.6317°
True anomaly
24.49015°
Mean anomaly
23.1752°
Eccentric anomaly
23.82834°
Mean motion
3.64665 °/min
Orbital period
98.72 mins
BSTAR
0.0013933
Loading maneuver chart data...
Computing Atmospheric mass density...
Loading historical data...
Loading historical data...
Loading historical data...
Loading historical data...
Loading historical data...
Loading historical data...
Loading historical data...

Documentation

Showing up to 5 results
|